Total_Precipitation_Accumulation
1.03 1.08 1.13 1.21 1.25 1.30 1.34 1.36 1.34 1.31 1.34 1.37 1.40 1.43 1.44 1.48 1.63 1.71 1.61 1.81 1.93 1.95 1.77 1.67 1.61 1.62 1.62 1.49 1.51 1.60 1.66 1.86 1.85 1.50 1.44 1.57 1.67 1.58 1.61 1.56 1.43 1.44 1.33
0.95 1.09 1.14 1.25 1.27 1.24 1.27 1.47 1.50 1.47 1.46 1.45 1.48 1.56 1.54 1.56 1.66 1.61 1.48 1.55 1.74 1.94 2.13 2.19 1.97 1.89 1.85 1.70 1.68 1.66 1.68 1.82 1.87 1.77 1.68 1.75 1.78 1.72 1.68 1.50 1.26 1.18 1.23
0.85 0.99 1.16 1.24 1.32 1.39 1.52 1.70 1.79 1.72 1.67 1.69 1.72 1.66 1.66 1.68 1.63 1.56 1.55 1.60 1.71 1.79 1.98 2.16 2.17 2.25 2.03 1.97 1.88 1.80 1.76 1.72 1.86 1.81 1.69 1.87 1.90 1.87 1.75 1.43 1.30 1.32 1.18
1.06 1.19 1.29 1.47 1.61 1.68 1.69 1.78 1.81 1.83 1.86 1.86 1.87 1.80 1.77 1.80 1.77 1.72 1.69 1.69 1.75 1.75 1.77 1.83 1.95 2.20 2.19 2.18 2.04 2.02 2.03 2.01 2.05 1.98 1.89 1.99 2.17 2.21 2.02 1.66 1.51 1.44 1.33
1.38 1.43 1.45 1.56 1.67 1.81 1.98 2.02 2.03 2.04 1.99 2.08 2.04 1.95 1.92 1.93 1.78 1.85 2.00 2.00 2.05 1.90 1.81 1.74 1.72 1.95 2.05 2.06 1.86 1.92 2.08 2.13 2.16 2.12 2.08 2.13 2.20 2.31 2.05 1.80 1.62 1.58 1.52
1.86 1.95 2.03 2.12 2.19 2.25 2.29 2.28 2.34 2.33 2.27 2.17 2.08 2.08 2.07 1.89 2.00 2.05 1.97 2.03 2.19 2.18 2.06 1.98 1.86 1.79 1.78 1.83 1.87 1.91 1.97 1.97 2.01 2.05 2.01 2.04 2.12 2.22 2.31 2.12 1.87 1.71 1.57
1.96 2.05 2.17 2.25 2.36 2.43 2.44 2.42 2.35 2.33 2.28 2.18 2.17 2.21 2.14 2.18 2.14 1.91 1.78 1.79 1.85 1.95 2.03 2.02 1.81 1.67 1.78 1.72 1.87 1.89 1.78 1.71 1.68 1.75 1.79 1.85 2.22 2.46 2.66 2.38 2.13 1.92 1.70
1.94 2.04 2.08 2.14 2.22 2.34 2.46 2.40 2.28 2.24 2.21 2.18 2.17 2.07 2.00 1.97 1.97 1.75 1.70 1.64 1.62 1.59 1.71 1.81 1.77 1.68 1.67 1.73 1.67 1.50 1.38 1.38 1.39 1.32 1.36 1.58 1.93 2.40 2.63 2.63 2.58 2.33 2.06
1.59 1.69 1.75 1.88 2.05 2.18 2.27 2.29 2.30 2.24 2.08 1.98 1.89 1.85 1.81 1.85 1.97 1.76 1.67 1.60 1.64 1.53 1.51 1.51 1.51 1.42 1.51 1.53 1.44 1.28 1.19 1.16 1.20 1.20 1.19 1.34 1.58 1.90 2.26 2.42 2.35 2.15 1.84
1.73 1.80 1.87 1.97 2.10 2.14 2.22 2.31 2.31 2.25 2.20 2.15 2.02 1.95 1.91 1.87 1.99 1.75 1.62 1.54 1.58 1.54 1.52 1.54 1.62 1.45 1.34 1.23 1.15 1.17 1.05 0.99 1.07 1.05 1.03 1.09 1.20 1.44 1.82 1.94 1.94 1.94 1.74
1.78 1.81 1.83 1.90 2.00 2.10 2.24 2.23 2.26 2.24 2.16 2.03 1.90 1.82 1.79 1.75 1.75 1.57 1.46 1.35 1.36 1.36 1.30 1.26 1.36 1.38 1.18 1.02 1.00 0.99 0.94 0.95 1.00 0.96 0.91 0.91 1.02 1.17 1.34 1.61 1.73 1.69 1.58
1.85 1.90 1.88 1.94 1.98 2.02 2.08 2.07 2.06 2.05 1.97 1.90 1.87 1.82 1.78 1.72 1.55 1.38 1.25 1.17 1.19 1.19 1.30 1.31 1.39 1.44 1.20 1.04 0.90 0.83 0.83 0.79 0.81 0.88 0.86 0.83 0.89 1.00 1.21 1.46 1.69 1.72 1.58
1.89 1.97 2.04 2.07 2.07 2.12 2.21 2.24 2.13 2.03 1.96 1.88 1.82 1.67 1.60 1.61 1.59 1.42 1.21 1.12 1.12 1.10 1.32 1.58 1.58 1.52 1.32 1.08 0.98 0.96 0.87 0.76 0.80 0.84 0.84 0.80 0.83 0.96 1.22 1.49 1.69 1.84 1.76
1.90 1.92 2.01 2.11 2.18 2.20 2.21 2.15 2.04 1.90 1.82 1.75 1.66 1.59 1.58 1.59 1.52 1.44 1.32 1.21 1.20 1.19 1.31 1.53 1.64 1.65 1.53 1.36 1.26 1.15 0.94 0.87 0.93 0.93 0.96 1.01 1.08 1.18 1.33 1.46 1.63 1.76 1.79
1.89 1.94 1.92 1.93 1.99 2.04 2.05 1.99 1.86 1.76 1.67 1.61 1.51 1.48 1.47 1.45 1.48 1.45 1.31 1.21 1.17 1.21 1.36 1.59 1.73 1.83 1.84 1.76 1.61 1.49 1.34 1.19 1.06 1.03 1.10 1.11 1.15 1.22 1.29 1.42 1.62 1.70 1.62
1.90 1.81 1.73 1.64 1.62 1.63 1.61 1.63 1.68 1.55 1.54 1.43 1.34 1.28 1.25 1.27 1.29 1.21 1.11 1.07 1.11 1.19 1.28 1.45 1.69 1.87 1.94 2.01 2.00 1.88 1.65 1.46 1.34 1.31 1.27 1.23 1.24 1.24 1.29 1.44 1.63 1.71 1.59
1.80 1.67 1.59 1.55 1.54 1.46 1.40 1.39 1.45 1.44 1.35 1.25 1.26 1.19 1.09 1.13 1.08 1.03 1.02 1.00 1.00 1.03 1.11 1.25 1.37 1.51 1.69 1.89 1.98 1.96 1.76 1.62 1.63 1.59 1.48 1.43 1.46 1.47 1.48 1.56 1.70 1.78 1.75
1.62 1.65 1.51 1.43 1.48 1.45 1.39 1.35 1.36 1.37 1.34 1.23 1.18 1.16 0.98 0.92 0.92 0.93 0.94 0.91 0.83 0.84 0.93 1.05 1.20 1.36 1.52 1.78 1.93 1.97 1.91 1.81 1.80 1.81 1.75 1.68 1.67 1.64 1.59 1.56 1.66 1.73 1.74
1.43 1.48 1.45 1.42 1.40 1.39 1.37 1.32 1.28 1.26 1.28 1.21 1.12 1.14 1.09 0.95 0.92 0.96 0.99 0.93 0.86 0.85 0.93 0.98 1.05 1.21 1.38 1.61 1.84 2.00 2.01 1.90 1.81 1.83 1.82 1.74 1.71 1.70 1.59 1.51 1.57 1.72 1.78
1.26 1.40 1.36 1.35 1.37 1.36 1.38 1.39 1.32 1.31 1.31 1.25 1.16 1.15 1.15 1.07 0.99 1.08 1.16 1.17 1.09 1.04 1.05 1.07 1.14 1.26 1.41 1.63 1.83 1.92 1.94 1.91 1.85 1.85 1.81 1.72 1.66 1.63 1.51 1.46 1.47 1.54 1.57
1.12 1.15 1.21 1.15 1.17 1.23 1.24 1.30 1.30 1.29 1.28 1.22 1.13 1.12 1.08 1.02 1.12 1.22 1.32 1.34 1.27 1.19 1.15 1.13 1.17 1.26 1.45 1.65 1.78 1.88 1.89 1.89 1.86 1.81 1.77 1.69 1.63 1.62 1.59 1.55 1.51 1.52 1.56
1.09 1.01 1.02 1.07 1.20 1.22 1.25 1.28 1.30 1.27 1.25 1.24 1.23 1.22 1.20 1.08 1.17 1.26 1.33 1.41 1.41 1.40 1.34 1.29 1.26 1.32 1.42 1.55 1.70 1.81 1.82 1.79 1.78 1.78 1.75 1.69 1.66 1.64 1.65 1.65 1.61 1.61 1.63
1.15 1.11 1.09 1.11 1.23 1.31 1.33 1.37 1.37 1.36 1.34 1.32 1.28 1.25 1.26 1.25 1.29 1.37 1.43 1.48 1.47 1.45 1.42 1.38 1.34 1.35 1.40 1.44 1.51 1.61 1.66 1.64 1.62 1.64 1.69 1.66 1.63 1.62 1.64 1.65 1.62 1.63 1.61
1.08 1.13 1.13 1.16 1.20 1.23 1.26 1.29 1.29 1.26 1.26 1.27 1.31 1.36 1.38 1.39 1.44 1.48 1.46 1.43 1.38 1.35 1.36 1.34 1.33 1.32 1.34 1.39 1.41 1.38 1.40 1.42 1.39 1.40 1.45 1.51 1.53 1.53 1.57 1.57 1.60 1.65 1.70
0.96 1.07 1.17 1.19 1.16 1.18 1.16 1.12 1.11 1.17 1.25 1.33 1.36 1.39 1.44 1.47 1.47 1.41 1.33 1.26 1.18 1.18 1.21 1.21 1.21 1.17 1.15 1.16 1.17 1.18 1.29 1.30 1.27 1.25 1.26 1.31 1.35 1.40 1.46 1.48 1.53 1.64 1.76
0.96 1.03 1.09 1.13 1.11 1.15 1.21 1.18 1.12 1.17 1.28 1.32 1.36 1.36 1.35 1.37 1.38 1.33 1.25 1.20 1.16 1.13 1.13 1.14 1.10 1.02 1.00 0.99 0.98 1.00 0.99 0.95 1.00 1.09 1.10 1.14 1.22 1.31 1.37 1.41 1.45 1.56 1.67